CW1909 Weather Reports


Display with metric or nautical units.
time (UTC)temp
F
wind
direction
speed
MPH
gust
MPH
rain 1hr
in
rain 24hr
in
rain mn
in
humidity
%
barometer
mb
20240413222005 55 223 2.0 9.0 0.00 0.00 0.00 82 1015.8
20240413221510 55 237 3.0 9.0 0.00 0.00 0.00 80 1016.0
20240413221006 56 293 3.0 9.0 0.00 0.00 0.00 85 1016.0
20240413220511 56 136 3.0 9.0 0.00 0.00 0.00 81 1015.9
20240413220011 55 221 1.0 15.0 0.00 0.00 0.00 79 1016.1
20240413215507 56 162 3.0 15.0 0.00 0.00 0.00 74 1016.2
20240413215004 57 88 2.0 10.0 0.00 0.00 0.00 73 1016.2
20240413214531 57 174 4.0 10.0 0.00 0.00 0.00 70 1016.2
20240413214008 57 116 2.0 10.0 0.00 0.00 0.00 72 1016.3
20240413213505 56 124 4.0 12.0 0.00 0.00 0.00 69 1016.5
20240413213009 57 183 3.0 12.0 0.00 0.00 0.00 66 1016.4
20240413212505 58 145 5.0 11.0 0.00 0.00 0.00 65 1016.4
20240413212008 57 264 4.0 12.0 0.00 0.00 0.00 65 1016.5
20240413211508 57 248 4.0 12.0 0.00 0.00 0.00 64 1016.4
20240413211005 57 192 2.0 10.0 0.00 0.00 0.00 64 1016.6
20240413210505 57 255 3.0 12.0 0.00 0.00 0.00 65 1016.6
20240413210009 57 128 4.0 15.0 0.00 0.00 0.00 63 1016.6
20240413205507 57 86 4.0 15.0 0.00 0.00 0.00 62 1016.5
20240413205005 57 232 1.0 12.0 0.00 0.00 0.00 63 1016.6
20240413204512 57 288 2.0 12.0 0.00 0.00 0.00 62 1016.7
20240413204005 58 145 3.0 12.0 0.00 0.00 0.00 61 1016.9
20240413203508 57 273 3.0 12.0 0.00 0.00 0.00 62 1017.0
20240413203006 58 99 3.0 9.0 0.00 0.00 0.00 61 1016.9
20240413202505 58 95 3.0 11.0 0.00 0.00 0.00 62 1017.1
20240413202004 57 171 3.0 12.0 0.00 0.00 0.00 61 1017.1
20240413201507 57 157 3.0 12.0 0.00 0.00 0.00 62 1017.2
20240413201004 56 142 3.0 11.0 0.00 0.00 0.00 61 1017.3
20240413200505 57 240 4.0 11.0 0.00 0.00 0.00 61 1017.4
20240413200011 57 233 5.0 14.0 0.00 0.00 0.00 60 1017.3
20240413195507 57 205 5.0 14.0 0.00 0.00 0.00 59 1017.4
20240413195005 57 252 2.0 16.0 0.00 0.00 0.00 59 1017.2
20240413194511 57 251 3.0 16.0 0.00 0.00 0.00 59 1017.2
20240413194010 57 360 4.0 15.0 0.00 0.00 0.00 59 1017.4
20240413193505 57 135 5.0 15.0 0.00 0.00 0.00 58 1017.5
20240413193020 58 345 2.0 12.0 0.00 0.00 0.00 57 1017.5
20240413192504 57 153 3.0 12.0 0.00 0.00 0.00 57 1017.5
20240413192004 58 205 1.0 11.0 0.00 0.00 0.00 56 1017.5
20240413191508 58 186 3.0 9.0 0.00 0.00 0.00 56 1017.7
20240413191005 58 51 2.0 10.0 0.00 0.00 0.00 57 1017.6
20240413190505 58 253 2.0 10.0 0.00 0.00 0.00 56 1017.6
20240413190009 58 240 3.0 9.0 0.00 0.00 0.00 56 1017.5
20240413185505 59 150 1.0 7.0 0.00 0.00 0.00 56 1017.5
20240413185009 58 164 1.0 8.0 0.00 0.00 0.00 56 1017.5
20240413184518 58 69 2.0 8.0 0.00 0.00 0.00 55 1017.5
20240413184007 59 136 3.0 8.0 0.00 0.00 0.00 55 1017.5
20240413183509 59 117 3.0 8.0 0.00 0.00 0.00 56 1017.5
20240413183013 59 149 3.0 11.0 0.00 0.00 0.00 56 1017.4
20240413182510 59 79 2.0 11.0 0.00 0.00 0.00 56 1017.5
20240413182005 59 155 2.0 9.0 0.00 0.00 0.00 56 1017.6
20240413181505 58 173 2.0 9.0 0.00 0.00 0.00 57 1017.5
20240413181004 59 119 2.0 7.0 0.00 0.00 0.00 57 1017.5
20240413180508 59 123 3.0 10.0 0.00 0.00 0.00 56 1017.6
20240413180009 59 134 2.0 10.0 0.00 0.00 0.00 57 1017.6
20240413175508 59 153 2.0 13.0 0.00 0.00 0.00 57 1017.6
20240413175005 59 205 3.0 13.0 0.00 0.00 0.00 57 1017.7
20240413174513 59 180 5.0 13.0 0.00 0.00 0.00 57 1017.6
20240413174005 59 129 3.0 8.0 0.00 0.00 0.00 59 1017.6
20240413173508 58 205 2.0 10.0 0.00 0.00 0.00 59 1017.5
20240413173029 57 227 3.0 10.0 0.00 0.00 0.00 59 1017.5
20240413172504 57 117 4.0 11.0 0.00 0.00 0.00 58 1017.8
20240413172007 57 127 5.0 11.0 0.00 0.00 0.00 58 1017.6
20240413171508 57 136 1.0 8.0 0.00 0.00 0.00 60 1017.6
20240413171004 57 244 2.0 12.0 0.00 0.00 0.00 60 1017.6
20240413170505 57 204 4.0 11.0 0.00 0.00 0.00 59 1017.6
20240413170019 57 178 3.0 12.0 0.00 0.00 0.00 59 1017.7
20240413165504 57 123 3.0 12.0 0.00 0.00 0.00 59 1017.6
20240413165007 58 318 5.0 10.0 0.00 0.00 0.00 61 1017.7
20240413164509 57 240 2.0 9.0 0.00 0.00 0.00 60 1017.6
20240413164009 57 214 1.0 9.0 0.00 0.00 0.00 60 1017.5
20240413163509 58 146 3.0 10.0 0.00 0.00 0.00 59 1017.4
20240413163012 56 211 3.0 10.0 0.00 0.00 0.00 59 1017.3
20240413162504 57 62 2.0 6.0 0.00 0.00 0.00 59 1017.3
20240413162010 56 155 1.0 7.0 0.00 0.00 0.00 61 1017.1
20240413161511 56 167 2.0 7.0 0.00 0.00 0.00 61 1017.1
20240413161004 56 149 1.0 8.0 0.00 0.00 0.00 62 1017.1
20240413160506 56 155 2.0 8.0 0.00 0.00 0.00 64 1016.8
20240413160006 56 141 1.0 6.0 0.00 0.00 0.00 63 1016.9
20240413155504 55 196 2.0 6.0 0.00 0.00 0.00 64 1016.8
20240413155004 55 194 1.0 5.0 0.00 0.00 0.00 65 1016.9
20240413154508 56 232 3.0 5.0 0.00 0.00 0.00 65 1017.0
20240413154006 56 137 2.0 4.0 0.00 0.00 0.00 64 1017.0
20240413153504 55 196 1.0 5.0 0.00 0.00 0.00 66 1017.2
20240413153011 55 188 1.0 5.0 0.00 0.00 0.00 67 1017.2
20240413152505 55 190 1.0 4.0 0.00 0.00 0.00 66 1017.1
20240413152004 54 192 0.0 7.0 0.00 0.00 0.00 68 1017.0
20240413151512 54 159 2.0 7.0 0.00 0.00 0.00 68 1017.1
20240413151005 54 236 1.0 7.0 0.00 0.00 0.00 69 1017.1
20240413150505 54 269 2.0 7.0 0.00 0.00 0.00 70 1017.1
20240413150006 53 236 1.0 4.0 0.00 0.00 0.00 70 1017.2
20240413145505 54 168 1.0 4.0 0.00 0.00 0.00 69 1017.3
20240413145006 54 153 1.0 5.0 0.00 0.00 0.00 70 1017.2
20240413144512 54 224 1.0 7.0 0.00 0.00 0.00 71 1017.2
20240413144004 53 227 1.0 5.0 0.00 0.00 0.00 72 1017.2
20240413143505 53 218 1.0 2.0 0.00 0.00 0.00 72 1017.0
20240413143010 53 238 1.0 2.0 0.00 0.00 0.00 73 1016.9
20240413142504 53 151 1.0 7.0 0.00 0.00 0.00 72 1016.9
20240413142005 53 231 2.0 7.0 0.00 0.00 0.00 73 1016.9
20240413141511 53 130 2.0 6.0 0.00 0.00 0.00 73 1016.7
20240413141009 53 217 1.0 7.0 0.00 0.00 0.00 74 1016.7
20240413140505 53 211 1.0 9.0 0.00 0.00 0.00 72 1017.0
20240413140012 53 270 3.0 8.0 0.00 0.00 0.00 73 1016.7
20240413135511 53 218 1.0 4.0 0.00 0.00 0.00 73 1016.5
20240413135010 52 233 1.0 11.0 0.00 0.00 0.00 73 1016.7
20240413134510 52 198 4.0 11.0 0.00 0.00 0.00 73 1016.5
20240413134009 52 256 2.0 4.0 0.00 0.00 0.00 72 1016.5
20240413133505 52 225 1.0 4.0 0.00 0.00 0.00 72 1016.6
20240413133015 52 220 2.0 9.0 0.00 0.00 0.00 71 1016.6
20240413132504 52 250 4.0 9.0 0.00 0.00 0.00 71 1016.5
20240413132008 52 248 2.0 5.0 0.00 0.00 0.00 71 1016.2
20240413131511 52 226 0.0 4.0 0.00 0.00 0.00 71 1016.3
20240413131006 52 237 1.0 4.0 0.00 0.00 0.00 72 1016.4
20240413130508 52 209 2.0 4.0 0.00 0.00 0.00 72 1016.2
20240413130015 52 263 1.0 4.0 0.00 0.00 0.00 72 1016.1
20240413125507 52 227 2.0 4.0 0.00 0.00 0.00 72 1016.2
20240413125004 52 242 1.0 3.0 0.00 0.00 0.00 74 1016.2
20240413124513 52 222 0.0 3.0 0.00 0.00 0.00 74 1016.2
20240413124009 52 244 1.0 3.0 0.00 0.00 0.00 74 1016.0
20240413123506 52 213 1.0 3.0 0.00 0.00 0.00 73 1016.2
20240413123013 52 178 0.0 3.0 0.00 0.00 0.00 73 1016.3
20240413122505 52 240 1.0 5.0 0.00 0.00 0.00 73 1016.2
20240413122009 52 281 1.0 5.0 0.00 0.00 0.00 73 1016.3
20240413121510 52 229 2.0 4.0 0.00 0.00 0.00 74 1016.3
20240413121004 52 233 2.0 4.0 0.00 0.00 0.00 74 1016.5
20240413120510 52 243 1.0 7.0 0.00 0.00 0.00 74 1016.5
20240413120011 52 215 2.0 7.0 0.00 0.00 0.00 74 1016.4
20240413115508 52 242 2.0 7.0 0.00 0.00 0.00 73 1016.4
20240413115007 52 273 2.0 4.0 0.00 0.00 0.00 74 1016.6
20240413114511 52 223 2.0 4.0 0.00 0.00 0.00 74 1016.6
20240413114008 52 219 2.0 5.0 0.00 0.00 0.00 74 1016.5
20240413113508 52 239 3.0 5.0 0.00 0.00 0.00 74 1016.7
20240413113014 52 233 2.0 5.0 0.00 0.00 0.00 74 1016.6
20240413112507 52 229 2.0 6.0 0.00 0.00 0.00 73 1016.7
20240413112005 53 213 2.0 6.0 0.00 0.00 0.00 73 1016.6
20240413111511 53 225 2.0 6.0 0.00 0.00 0.00 73 1016.6
20240413111006 53 220 3.0 8.0 0.00 0.00 0.00 73 1016.7
20240413110504 53 229 3.0 8.0 0.00 0.00 0.00 73 1016.7
20240413110011 53 235 2.0 10.0 0.00 0.00 0.00 73 1016.6
20240413105509 53 241 4.0 12.0 0.00 0.00 0.00 73 1016.7
20240413105008 53 241 4.0 12.0 0.00 0.00 0.00 73 1016.7
20240413104510 53 241 4.0 10.0 0.00 0.00 0.00 73 1016.6
20240413104007 53 254 5.0 10.0 0.00 0.00 0.00 73 1016.5
20240413103507 53 247 3.0 8.0 0.00 0.00 0.00 73 1016.5
20240413103012 53 215 3.0 8.0 0.00 0.00 0.00 73 1016.4
20240413102508 53 250 2.0 8.0 0.00 0.00 0.00 73 1016.5
20240413102010 53 240 4.0 8.0 0.00 0.00 0.00 73 1016.5
20240413101509 53 226 3.0 6.0 0.00 0.00 0.00 73 1016.4
20240413101007 53 251 3.0 6.0 0.00 0.00 0.00 73 1016.4
20240413100507 53 207 2.0 12.0 0.00 0.00 0.00 74 1016.4
20240413100011 53 231 3.0 12.0 0.00 0.00 0.00 73 1016.5
20240413095507 53 184 2.0 9.0 0.00 0.00 0.00 73 1016.6
20240413095004 53 254 3.0 9.0 0.00 0.00 0.00 74 1016.5
20240413094512 53 235 2.0 8.0 0.00 0.00 0.00 74 1016.5
20240413094009 53 207 4.0 8.0 0.00 0.00 0.00 74 1016.5
20240413093505 53 238 3.0 6.0 0.00 0.00 0.00 74 1016.5
20240413093011 53 205 1.0 8.0 0.00 0.00 0.00 73 1016.6
20240413092504 53 219 2.0 10.0 0.00 0.00 0.00 74 1016.7
20240413092008 53 235 2.0 10.0 0.00 0.00 0.00 74 1016.7
20240413091512 53 215 5.0 9.0 0.00 0.00 0.00 74 1016.8
20240413091008 53 279 2.0 10.0 0.00 0.00 0.00 74 1016.6
20240413090506 53 253 5.0 10.0 0.00 0.00 0.00 74 1016.8
20240413090012 53 259 3.0 9.0 0.00 0.00 0.00 74 1016.8
20240413085507 53 281 3.0 9.0 0.00 0.00 0.00 74 1016.7
20240413085005 53 233 2.0 9.0 0.00 0.00 0.00 74 1016.8
20240413084511 53 232 3.0 8.0 0.00 0.00 0.00 74 1016.8
20240413084004 53 273 3.0 10.0 0.00 0.00 0.00 74 1016.7
20240413083504 53 244 4.0 10.0 0.00 0.00 0.00 74 1016.6
20240413083014 53 249 4.0 10.0 0.00 0.00 0.00 74 1016.7
20240413082505 53 245 3.0 9.0 0.00 0.00 0.00 74 1016.7
20240413082005 53 206 4.0 16.0 0.00 0.00 0.00 75 1016.6
20240413081530 53 222 4.0 16.0 0.00 0.00 0.00 74 1016.7
20240413081009 53 265 3.0 8.0 0.00 0.00 0.00 75 1016.7
20240413080508 53 261 2.0 9.0 0.00 0.00 0.00 76 1016.7
20240413080009 53 253 4.0 9.0 0.00 0.00 0.00 76 1016.7
20240413075507 53 209 1.0 9.0 0.00 0.00 0.00 77 1016.7
20240413075007 53 196 4.0 10.0 0.00 0.00 0.00 77 1016.8
20240413074516 53 225 4.0 10.0 0.00 0.00 0.00 77 1016.8
20240413074008 53 235 3.0 7.0 0.00 0.00 0.00 77 1016.6
20240413073507 53 215 3.0 7.0 0.00 0.00 0.00 77 1016.8
20240413073010 53 279 2.0 5.0 0.00 0.00 0.00 77 1016.7
20240413072507 53 242 0.0 12.0 0.00 0.00 0.00 77 1016.8
20240413072009 53 207 3.0 12.0 0.00 0.00 0.00 77 1016.6
20240413071523 53 213 2.0 6.0 0.00 0.00 0.00 77 1016.6
20240413071009 53 204 2.0 9.0 0.00 0.00 0.00 77 1016.6
20240413070512 53 217 3.0 9.0 0.00 0.00 0.00 77 1016.5
20240413070015 53 265 3.0 8.0 0.00 0.00 0.00 77 1016.5
20240413065505 53 239 2.0 7.0 0.00 0.00 0.00 77 1016.4
20240413065005 53 242 4.0 7.0 0.00 0.00 0.00 77 1016.4
20240413064511 53 238 1.0 6.0 0.00 0.00 0.00 77 1016.3
20240413064004 53 243 3.0 6.0 0.00 0.00 0.00 77 1016.3
20240413063506 53 284 2.0 8.0 0.00 0.00 0.00 77 1016.2
20240413063012 53 230 4.0 9.0 0.00 0.00 0.00 77 1016.3
20240413062509 53 229 3.0 9.0 0.00 0.00 0.00 77 1016.3
20240413062008 53 214 3.0 8.0 0.00 0.00 0.00 77 1016.3
20240413061514 53 215 2.0 6.0 0.00 0.00 0.00 78 1016.2
20240413061011 53 234 3.0 6.0 0.00 0.00 0.00 77 1016.3
20240413060511 53 280 1.0 7.0 0.00 0.00 0.00 77 1016.3
20240413060013 53 219 3.0 7.0 0.00 0.00 0.00 77 1016.3
20240413055509 54 260 4.0 8.0 0.00 0.00 0.00 77 1016.3
20240413055008 54 273 3.0 8.0 0.00 0.00 0.00 77 1016.3
20240413054509 54 229 4.0 8.0 0.00 0.00 0.00 78 1016.3
20240413054008 54 211 2.0 6.0 0.00 0.00 0.00 78 1016.3
20240413053504 54 229 3.0 7.0 0.00 0.00 0.00 78 1016.3
20240413053011 54 265 3.0 7.0 0.00 0.00 0.00 78 1016.2
20240413052509 53 263 2.0 10.0 0.00 0.00 0.00 79 1016.2
20240413052012 53 235 3.0 10.0 0.00 0.00 0.00 79 1016.2
20240413051513 54 233 2.0 8.0 0.00 0.00 0.00 79 1016.2
20240413051007 54 250 2.0 8.0 0.00 0.00 0.00 79 1016.2
20240413050507 54 288 3.0 7.0 0.00 0.00 0.00 79 1016.2
20240413050022 54 261 3.0 7.0 0.00 0.00 0.00 79 1016.3
20240413045507 54 215 2.0 7.0 0.00 0.00 0.00 78 1016.3
20240413045009 54 206 3.0 8.0 0.00 0.00 0.00 78 1016.2
20240413044508 54 271 5.0 8.0 0.00 0.00 0.00 78 1016.2
20240413044004 54 229 3.0 7.0 0.00 0.00 0.00 78 1016.0
20240413043504 54 214 3.0 5.0 0.00 0.00 0.00 78 1016.0
20240413043013 54 235 3.0 8.0 0.00 0.00 0.00 79 1015.9
20240413042508 54 232 3.0 8.0 0.00 0.00 0.00 78 1015.9
20240413042009 54 223 3.0 5.0 0.00 0.00 0.00 78 1015.9
20240413041513 54 290 2.0 5.0 0.00 0.00 0.00 79 1015.8
20240413041009 54 222 1.0 3.0 0.00 0.00 0.00 78 1015.9
20240413040504 54 247 1.0 3.0 0.00 0.00 0.00 78 1015.8
20240413040015 54 254 0.0 4.0 0.00 0.00 0.00 78 1015.8
20240413035508 54 195 2.0 5.0 0.00 0.00 0.00 78 1015.8
20240413035008 54 223 2.0 5.0 0.00 0.00 0.00 78 1015.8
20240413034512 54 229 0.0 6.0 0.00 0.00 0.00 78 1015.8
20240413034007 54 230 3.0 7.0 0.00 0.00 0.00 78 1015.8
20240413033504 54 239 2.0 7.0 0.00 0.00 0.00 78 1015.8
20240413033013 54 232 2.0 8.0 0.00 0.00 0.00 78 1015.7
20240413032513 54 246 3.0 8.0 0.00 0.00 0.00 78 1015.7
20240413032008 54 269 1.0 6.0 0.00 0.00 0.00 78 1015.5
20240413031512 54 244 2.0 6.0 0.00 0.00 0.00 78 1015.5
20240413031005 54 238 2.0 6.0 0.00 0.00 0.00 78 1015.4
20240413030505 54 271 2.0 6.0 0.00 0.00 0.00 78 1015.2
20240413030014 55 207 3.0 9.0 0.00 0.00 0.00 78 1015.2
20240413025508 55 247 3.0 9.0 0.00 0.00 0.00 77 1015.2
20240413025011 55 215 3.0 7.0 0.00 0.00 0.00 77 1015.1
20240413024512 55 241 3.0 7.0 0.00 0.00 0.00 76 1015.0
20240413024009 55 240 4.0 6.0 0.00 0.00 0.00 76 1014.9
20240413023505 55 267 2.0 5.0 0.00 0.00 0.00 76 1015.0
20240413023016 56 233 2.0 6.0 0.00 0.00 0.00 75 1015.1
20240413022506 55 262 2.0 6.0 0.00 0.00 0.00 76 1015.0
20240413022008 55 256 2.0 6.0 0.00 0.00 0.00 75 1015.1
20240413021513 56 244 4.0 6.0 0.00 0.00 0.00 75 1015.1
20240413021004 56 242 2.0 6.0 0.00 0.00 0.00 75 1015.2
20240413020505 56 234 4.0 7.0 0.00 0.00 0.00 75 1015.1
20240413020013 56 286 2.0 7.0 0.00 0.00 0.00 75 1015.2
20240413015505 56 233 3.0 8.0 0.00 0.00 0.00 75 1015.2
20240413015008 56 206 3.0 8.0 0.00 0.00 0.00 75 1015.2
20240413014514 56 231 1.0 5.0 0.00 0.00 0.00 75 1015.3
20240413014009 56 250 1.0 6.0 0.00 0.00 0.00 75 1015.1
20240413013505 56 237 2.0 7.0 0.00 0.00 0.00 75 1015.1
20240413013023 56 257 2.0 7.0 0.00 0.00 0.00 75 1015.0
20240413012505 56 214 3.0 8.0 0.00 0.00 0.00 75 1014.9
20240413012005 57 244 1.0 8.0 0.00 0.00 0.00 74 1014.9
20240413011531 57 241 1.0 7.0 0.00 0.00 0.00 74 1014.9
20240413011006 57 247 3.0 9.0 0.00 0.00 0.00 74 1015.0
20240413010508 57 245 4.0 9.0 0.00 0.00 0.00 74 1015.0
20240413010012 57 249 4.0 10.0 0.00 0.00 0.00 73 1015.0
20240413005504 58 258 5.0 10.0 0.00 0.00 0.00 72 1015.0
20240413005007 58 216 4.0 8.0 0.00 0.00 0.00 72 1015.0
20240413004512 58 266 4.0 8.0 0.00 0.00 0.00 73 1014.9
20240413004008 58 241 4.0 10.0 0.00 0.00 0.00 72 1014.7
20240413003511 58 209 3.0 10.0 0.00 0.00 0.00 72 1014.7
20240413003012 58 217 5.0 10.0 0.00 0.00 0.00 72 1014.7
20240413002505 58 223 3.0 9.0 0.00 0.00 0.00 72 1014.8
20240413002007 58 217 3.0 8.0 0.00 0.00 0.00 72 1014.7
20240413001510 59 279 3.0 10.0 0.00 0.00 0.00 71 1014.7
20240413001007 59 220 5.0 10.0 0.00 0.00 0.00 72 1014.6
20240413000507 59 282 6.0 10.0 0.00 0.00 0.00 72 1014.6
20240413000009 59 219 5.0 9.0 0.00 0.00 0.00 72 1014.5
20240412235508 60 244 5.0 11.0 0.00 0.00 0.00 72 1014.6
20240412235004 59 238 5.0 11.0 0.00 0.00 0.00 72 1014.6
20240412234528 60 240 4.0 10.0 0.00 0.00 0.00 71 1014.6
20240412234007 59 202 5.0 11.0 0.00 0.00 0.00 72 1014.6
20240412233507 59 208 7.0 11.0 0.00 0.00 0.00 71 1014.6
20240412233012 60 234 5.0 10.0 0.00 0.00 0.00 71 1014.6
20240412232508 60 230 6.0 10.0 0.00 0.00 0.00 70 1014.5
20240412232007 61 217 4.0 9.0 0.00 0.00 0.00 69 1014.4
20240412231524 61 238 4.0 9.0 0.00 0.00 0.00 68 1014.3
20240412231006 61 263 5.0 10.0 0.00 0.00 0.00 70 1014.3
20240412230504 61 248 3.0 10.0 0.00 0.00 0.00 69 1014.2
20240412230016 61 179 3.0 11.0 0.00 0.00 0.00 69 1014.3
20240412225505 62 263 4.0 12.0 0.00 0.00 0.00 68 1014.3
20240412225004 62 246 4.0 12.0 0.00 0.00 0.00 68 1014.3
20240412224511 62 213 5.0 13.0 0.00 0.00 0.00 66 1014.3
20240412224004 62 254 5.0 13.0 0.00 0.00 0.00 66 1014.3
20240412223505 62 231 4.0 13.0 0.00 0.00 0.00 67 1014.4
20240412223013 63 277 8.0 14.0 0.00 0.00 0.00 67 1014.3
20240412222505 63 237 8.0 14.0 0.00 0.00 0.00 67 1014.2